Weather History for Louisville Bowman, KY

Change the Weather History Date:

Thursday, October 6, 2011

  Actual Average Record
Temperature  
Mean Temperature 71 °F 61 °F  
Max Temperature 85 °F 72 °F 90 °F (2007)
Min Temperature 57 °F 50 °F 34 °F (1980)
Degree Days  
Heating Degree Days 0 5  
Month to date heating degree days 36 28  
Since 1 July heating degree days 80 64  
Cooling Degree Days 6 2  
Month to date cooling degree days 6 12  
Year to date cooling degree days 1709 1425  
Growing Degree Days 20 (Base 50)    
Moisture  
Dew Point 50 °F    
Average Humidity 55    
Maximum Humidity 86    
Minimum Humidity 24    
Precipitation  
Precipitation 0.00 in 0.09 in 1.31 in (2013)
Month to date precipitation 0.00 0.55  
Year to date precipitation 54.98 35.25  
Sea Level Pressure  
Sea Level Pressure 30.25 in    
Wind  
Wind Speed 1 mph (ENE)    
Max Wind Speed 8 mph    
Max Gust Speed 10 mph    
Visibility 10 miles    
Events      
T = Trace of Precipitation, MM = Missing Value Source: NWS Daily Summary

Daily Weather History Graph

Daily Weather History Graph

Search for Another Location

Airport:

Trip Planner

Search our weather history database for the weather conditions in past years. The results will help you decide how hot, cold, wet, or windy it might be!

Date:

Astronomy

Oct. 06, 2011 Rise Set
Actual Time 7:42 AM EDT 7:18 PM EDT
Civil Twilight 7:16 AM EDT 7:44 PM EDT
Nautical Twilight 6:45 AM EDT 8:15 PM EDT
Astronomical Twilight 6:15 AM EDT 8:45 PM EDT
Moon 4:27 PM EDT (10/6) 2:34 AM EDT (10/6)
Length of Visible Light 12h 28m
Length of Day
11h 35m
Waxing Gibbous, 75% of the Moon is Illuminated
Oct 6
Waxing Gibbous
Oct 11
Full
Oct 19
Last Quarter
Oct 26
New
Nov 2
First Quarter

Hourly Weather History & Observations

Time (EDT) Temp. Dew Point Humidity Pressure Visibility Wind Dir Wind Speed Gust Speed Precip Events Conditions
12:53 AM 60.1 °F 54.0 °F 80% 30.23 in 10.0 mi Calm Calm - N/A   Clear
1:53 AM 59.0 °F 53.6 °F 82% 30.24 in 10.0 mi Calm Calm - N/A   Clear
2:53 AM 59.0 °F 54.0 °F 83% 30.24 in 10.0 mi Calm Calm - N/A   Clear
3:53 AM 59.0 °F 54.0 °F 83% 30.24 in 10.0 mi Calm Calm - N/A   Clear
4:53 AM 57.9 °F 54.0 °F 87% 30.24 in 10.0 mi Calm Calm - N/A   Clear
5:53 AM 61.0 °F 53.1 °F 75% 30.24 in 10.0 mi Calm Calm - N/A   Clear
6:53 AM 59.0 °F 52.0 °F 78% 30.25 in 10.0 mi Calm Calm - N/A   Clear
7:53 AM 57.0 °F 52.0 °F 83% 30.27 in 10.0 mi Calm Calm - N/A   Clear
8:53 AM 62.1 °F 54.0 °F 75% 30.28 in 10.0 mi Calm Calm - N/A   Clear
9:53 AM 66.9 °F 54.0 °F 63% 30.29 in 10.0 mi East 3.5 mph - N/A   Clear
10:53 AM 72.0 °F 53.1 °F 51% 30.30 in 10.0 mi East 4.6 mph - N/A   Clear
11:53 AM 73.9 °F 51.1 °F 45% 30.29 in 10.0 mi Calm Calm - N/A   Clear
12:53 PM 77.0 °F 48.0 °F 36% 30.28 in 10.0 mi Calm Calm - N/A   Clear
1:53 PM 79.0 °F 46.0 °F 31% 30.26 in 10.0 mi Calm Calm - N/A   Clear
2:53 PM 82.9 °F 45.0 °F 26% 30.23 in 10.0 mi Calm Calm - N/A   Clear
3:53 PM 82.9 °F 43.0 °F 24% 30.23 in 10.0 mi ENE 4.6 mph - N/A   Clear
4:53 PM 84.0 °F 44.1 °F 25% 30.23 in 10.0 mi Calm Calm - N/A   Clear
5:53 PM 84.0 °F 44.1 °F 25% 30.22 in 10.0 mi ENE 4.6 mph - N/A   Clear
6:53 PM 81.0 °F 43.0 °F 26% 30.23 in 10.0 mi ENE 5.8 mph - N/A   Clear
7:53 PM 73.4 °F 48.2 °F 41% 30.25 in 10.0 mi Calm Calm - N/A   Clear
8:53 PM 69.8 °F 50.0 °F 49% 30.26 in 10.0 mi Calm Calm - N/A   Clear
9:53 PM 66.0 °F 51.1 °F 59% 30.26 in 10.0 mi Calm Calm - N/A   Clear
10:53 PM 64.0 °F 52.0 °F 65% 30.27 in 10.0 mi Calm Calm - N/A   Clear
11:53 PM 63.0 °F 52.0 °F 67% 30.27 in 10.0 mi Calm Calm - N/A   Clear